STARLINK-5909, 55938

Orbit data source: Space-Track

STARLINK-5909, 55938 is a payload satellite owned by SpaceX/Seattle (US) in LEO that was launched on Fri, 17 Mar 2023 UTC via an FALCON 9 launch vehicle from the Air Force Western Test Range (AFWTR). Payload-class satellites include a variety of spacecraft equipped with specific instruments for various scientific and technological missions. These include communications satellites like Starlink; space stations such as the ISS; scientific satellites like the Hubble; Earth observation satellites from companies like Planet Labs, Umbra, and HawkEye 360; GPS; miniature CubeSats for education and research; and military/defense satellites.

Loading next visibility...
Identifier
55938, 2023-037AA
Orbit
LEO
Country
Flag of USUS
Related business
Manufacturer
SpaceX/Seattle
Mission
Operational Commercial Communications
Bus & Motor
STARLINK, Unknown motor
Mass
305 kg wet, ~290 kg dry
Launch date (UTC)
2023-03-17 (3 years ago)
Launch vehicle
FALCON 9
Launch site
Air Force Western Test Range (AFWTR)
Object type
Payload
Rocket body
Debris
Shape & HBR
Box + 1 Pan, 10.1 m
Radar Cross Section
11.087 m², Large (>1 m²)

Expand to show TLE details & history
Last TLE update: 10 hours ago

TLE from 10 hours ago
0 STARLINK-5909
1 55938U 23037AA  25346.86121350 -.00000510  00000-0 -34958-4 0  9992
2 55938  69.9991 143.4006 0002939 272.0357  88.0465 14.98325768150978
Epoch: 2025-12-12T20:40Z
TLE epoch observation values (Epoch: 2025-12-12T20:40:08.846Z)
Latitude
-0.00006°
Longitude
111.56695°
Altitude
574.424 km
Speed
7.574 km/s
True Right ascension
09h 33m 36s
True Declination
0° 00' 00"
Sunlit
Object was in full shadow at epoch
Visualization orbit readout
Latitude
Unknown
Longitude
Unknown
Altitude
Unknown
Speed
Unknown
Apparent Right ascension
Unknown
Apparent Declination
Unknown
Sunlit
N/A
Visualization observer readout
Local Sidereal Time
05:23:02
Azimuth
Unknown
Elevation
Unknown
Doppler factor
Unknown
Orbital elements
Apogee altitude
572.059 km
Perigee altitude
567.975 km
Semi-major axis
6,948.154 km
Eccentricity
0.00029
Inclination
69.9991°
RAAN
143.4006°
Arg. of periapsis
272.0357°
True anomaly
88.08016°
Mean anomaly
88.0465°
Eccentric anomaly
88.06333°
Mean motion
3.74748 °/min
Orbital period
96.06 mins
BSTAR
-0.000034958
Loading maneuver chart data...
Computing Atmospheric mass density...
Loading historical data...
Loading historical data...
Loading historical data...
Loading historical data...
Loading historical data...
Loading historical data...
Loading historical data...

Documentation

Showing up to 5 results
|